Weather History for Joplin, MO

Change the Weather History Date:

Thursday, November 8, 2012

  Actual Average Record
Temperature  
Mean Temperature 56 °F 52 °F  
Max Temperature 71 °F 63 °F 83 °F (1980)
Min Temperature 40 °F 41 °F 8 °F (1991)
Degree Days  
Heating Degree Days 9 13  
Month to date heating degree days 101 97  
Since 1 July heating degree days 425 349  
Cooling Degree Days 0 0  
Month to date cooling degree days 0 5  
Year to date cooling degree days 2102 1696  
Growing Degree Days 6 (Base 50)    
Moisture  
Dew Point 38 °F    
Average Humidity 53    
Maximum Humidity 70    
Minimum Humidity 32    
Precipitation  
Precipitation 0.00 in 0.13 in 1.91 in (2011)
Month to date precipitation T 1.05  
Year to date precipitation 35.65 41.00  
Snow  
Snow 0.00 in - - ()
Month to date snowfall 0.0  
Snow Depth 0.00 in    
Sea Level Pressure  
Sea Level Pressure 30.02 in    
Wind  
Wind Speed 11 mph (SSE)    
Max Wind Speed 23 mph    
Max Gust Speed 29 mph    
Visibility 10 miles    
Events      
T = Trace of Precipitation, MM = Missing Value Source: NWS Daily Summary

Daily Weather History Graph

Daily Weather History Graph

Search for Another Location

Airport:

Trip Planner

Search our weather history database for the weather conditions in past years. The results will help you decide how hot, cold, wet, or windy it might be!

Date:

Astronomy

Nov. 08, 2012 Rise Set
Actual Time 6:50 AM CST 5:13 PM CST
Civil Twilight 6:22 AM CST 5:40 PM CST
Nautical Twilight 5:51 AM CST 6:11 PM CST
Astronomical Twilight 5:21 AM CST 6:42 PM CST
Moon 12:54 AM CST (11/8) 1:47 PM CST (11/8)
Length of Visible Light 11h 17m
Length of Day
10h 22m
Waning Crescent, 32% of the Moon is Illuminated
Nov 8
Waning Crescent
Nov 13
New
Nov 20
First Quarter
Nov 28
Full
Dec 6
Last Quarter

Hourly Weather History & Observations

Time (CST) Temp. Windchill Dew Point Humidity Pressure Visibility Wind Dir Wind Speed Gust Speed Precip Events Conditions
12:53 AM 42.1 °F 37.1 °F 32.0 °F 67% 30.14 in 10.0 mi SSE 8.1 mph - N/A   Clear
1:53 AM 42.1 °F 37.1 °F 32.0 °F 67% 30.13 in 10.0 mi SE 8.1 mph - N/A   Clear
2:53 AM 42.1 °F 37.1 °F 32.0 °F 67% 30.12 in 10.0 mi SE 8.1 mph - N/A   Clear
3:53 AM 41.0 °F 35.2 °F 32.0 °F 70% 30.10 in 10.0 mi SE 9.2 mph - N/A   Clear
4:53 AM 41.0 °F 36.4 °F 32.0 °F 70% 30.11 in 10.0 mi SE 6.9 mph - N/A   Clear
5:53 AM 41.0 °F 35.8 °F 32.0 °F 70% 30.10 in 10.0 mi SE 8.1 mph - N/A   Clear
6:53 AM 42.1 °F 37.1 °F 32.0 °F 67% 30.10 in 10.0 mi SE 8.1 mph - N/A   Clear
7:53 AM 45.0 °F 40.1 °F 33.1 °F 63% 30.11 in 10.0 mi SE 9.2 mph - N/A   Clear
8:53 AM 50.0 °F - 35.1 °F 57% 30.11 in 10.0 mi SSE 9.2 mph - N/A   Clear
9:53 AM 57.0 °F - 37.0 °F 47% 30.09 in 10.0 mi SSE 8.1 mph - N/A   Clear
10:53 AM 63.0 °F - 37.0 °F 38% 30.07 in 10.0 mi South 12.7 mph - N/A   Clear
11:53 AM 66.9 °F - 37.0 °F 33% 30.03 in 10.0 mi South 19.6 mph 25.3 mph N/A   Clear
12:53 PM 70.0 °F - 39.0 °F 32% 29.99 in 10.0 mi South 16.1 mph 26.5 mph N/A   Clear
1:53 PM 70.0 °F - 41.0 °F 35% 29.96 in 10.0 mi South 20.7 mph 25.3 mph N/A   Clear
2:53 PM 71.1 °F - 43.0 °F 36% 29.94 in 10.0 mi South 13.8 mph - N/A   Clear
3:53 PM 69.1 °F - 44.1 °F 40% 29.93 in 10.0 mi South 12.7 mph 23.0 mph N/A   Clear
4:53 PM 66.0 °F - 43.0 °F 43% 29.92 in 10.0 mi South 13.8 mph - N/A   Clear
5:53 PM 64.0 °F - 42.1 °F 45% 29.92 in 10.0 mi SSE 12.7 mph 21.9 mph N/A   Clear
6:53 PM 60.1 °F - 42.1 °F 51% 29.95 in 10.0 mi South 8.1 mph - N/A   Clear
7:53 PM 60.1 °F - 41.0 °F 49% 29.96 in 10.0 mi South 9.2 mph - N/A   Clear
8:53 PM 57.9 °F - 39.9 °F 51% 29.96 in 10.0 mi SSE 10.4 mph - N/A   Clear
9:53 PM 57.0 °F - 39.9 °F 53% 29.96 in 10.0 mi SSE 10.4 mph - N/A   Clear
10:53 PM 55.9 °F - 41.0 °F 57% 29.94 in 10.0 mi SSE 10.4 mph - N/A   Clear
11:53 PM 57.0 °F - 42.1 °F 57% 29.93 in 10.0 mi South 13.8 mph - N/A   Clear